Time,TemperatureF,DewpointF,PressureIn,WindDirection,WindDirectionDegrees,WindSpeedMPH,WindSpeedGustMPH,Humidity,HourlyPrecipIn,Conditions,Clouds,dailyrainin,SoftwareType,DateUTC
2013-03-30 00:04:00,40.4,29.0,30.20,WSW,251,0.0,3.0,64,0.00,,,0.00,weatherlink.com 1.10,2013-03-30 04:04:00,
2013-03-30 00:19:00,40.2,28.0,30.20,WSW,256,0.0,2.0,62,0.00,,,0.00,weatherlink.com 1.10,2013-03-30 04:19:00,
2013-03-30 00:34:00,40.2,28.0,30.20,West,260,0.0,2.0,62,0.00,,,0.00,weatherlink.com 1.10,2013-03-30 04:34:00,
2013-03-30 00:49:00,38.1,28.0,30.20,SW,229,0.0,1.0,67,0.00,,,0.00,weatherlink.com 1.10,2013-03-30 04:49:00,
2013-03-30 01:04:00,36.7,28.0,30.20,SW,229,0.0,0.0,71,0.00,,,0.00,weatherlink.com 1.10,2013-03-30 05:04:00,
2013-03-30 01:19:00,36.3,28.0,30.21,SW,229,0.0,0.0,71,0.00,,,0.00,weatherlink.com 1.10,2013-03-30 05:19:00,
2013-03-30 01:34:00,36.5,28.0,30.21,SW,229,0.0,0.0,72,0.00,,,0.00,weatherlink.com 1.10,2013-03-30 05:34:00,
2013-03-30 01:49:00,36.1,28.0,30.21,SW,229,0.0,0.0,72,0.00,,,0.00,weatherlink.com 1.10,2013-03-30 05:49:00,
2013-03-30 02:04:00,35.5,28.0,30.20,SW,229,0.0,0.0,73,0.00,,,0.00,weatherlink.com 1.10,2013-03-30 06:04:00,
2013-03-30 02:19:00,36.1,28.0,30.20,SW,229,0.0,0.0,72,0.00,,,0.00,weatherlink.com 1.10,2013-03-30 06:19:00,
2013-03-30 02:34:00,36.0,28.0,30.20,SW,229,0.0,0.0,72,0.00,,,0.00,weatherlink.com 1.10,2013-03-30 06:34:00,
2013-03-30 02:49:00,35.3,28.0,30.20,SW,229,0.0,0.0,74,0.00,,,0.00,weatherlink.com 1.10,2013-03-30 06:49:00,
2013-03-30 03:04:00,35.2,28.0,30.20,SW,229,0.0,0.0,74,0.00,,,0.00,weatherlink.com 1.10,2013-03-30 07:04:00,
2013-03-30 03:19:00,35.7,27.0,30.20,SW,229,0.0,0.0,72,0.00,,,0.00,weatherlink.com 1.10,2013-03-30 07:19:00,
2013-03-30 03:34:00,35.5,28.0,30.20,SW,229,0.0,0.0,73,0.00,,,0.00,weatherlink.com 1.10,2013-03-30 07:34:00,
2013-03-30 03:49:00,35.2,28.0,30.20,SW,229,0.0,0.0,74,0.00,,,0.00,weatherlink.com 1.10,2013-03-30 07:49:00,
2013-03-30 04:05:00,35.2,28.0,30.20,SW,229,0.0,0.0,74,0.00,,,0.00,weatherlink.com 1.10,2013-03-30 08:05:00,
2013-03-30 04:20:00,35.3,28.0,30.20,SW,230,0.0,0.0,74,0.00,,,0.00,weatherlink.com 1.10,2013-03-30 08:20:00,
2013-03-30 04:35:00,35.3,28.0,30.20,SW,230,0.0,0.0,74,0.00,,,0.00,weatherlink.com 1.10,2013-03-30 08:35:00,
2013-03-30 04:50:00,35.0,28.0,30.20,WNW,292,0.0,1.0,76,0.00,,,0.00,weatherlink.com 1.10,2013-03-30 08:50:00,
2013-03-30 05:05:00,34.7,28.0,30.20,WNW,296,0.0,0.0,76,0.00,,,0.00,weatherlink.com 1.10,2013-03-30 09:05:00,
2013-03-30 05:20:00,35.1,28.0,30.20,West,270,0.0,2.0,74,0.00,,,0.00,weatherlink.com 1.10,2013-03-30 09:20:00,
2013-03-30 05:35:00,34.4,28.0,30.20,WNW,290,0.0,1.0,76,0.00,,,0.00,weatherlink.com 1.10,2013-03-30 09:35:00,
2013-03-30 05:50:00,35.1,28.0,30.20,NW,319,1.0,2.0,75,0.00,,,0.00,weatherlink.com 1.10,2013-03-30 09:50:00,
2013-03-30 06:05:00,35.1,28.0,30.21,NW,310,0.0,4.0,75,0.00,,,0.00,weatherlink.com 1.10,2013-03-30 10:05:00,
2013-03-30 06:20:00,35.3,28.0,30.21,NW,310,1.0,2.0,75,0.00,,,0.00,weatherlink.com 1.10,2013-03-30 10:20:00,
2013-03-30 06:35:00,35.1,28.0,30.21,NNW,327,0.0,3.0,75,0.00,,,0.00,weatherlink.com 1.10,2013-03-30 10:35:00,
2013-03-30 06:50:00,33.7,28.0,30.22,NW,325,0.0,2.0,78,0.00,,,0.00,weatherlink.com 1.10,2013-03-30 10:50:00,
2013-03-30 07:05:00,34.3,28.0,30.22,WNW,294,0.0,2.0,77,0.00,,,0.00,weatherlink.com 1.10,2013-03-30 11:05:00,
2013-03-30 07:20:00,35.5,28.0,30.23,NW,309,1.0,3.0,74,0.00,,,0.00,weatherlink.com 1.10,2013-03-30 11:20:00,
2013-03-30 07:35:00,36.4,29.0,30.23,NW,306,1.0,3.0,73,0.00,,,0.00,weatherlink.com 1.10,2013-03-30 11:35:00,
2013-03-30 07:50:00,37.4,29.0,30.23,WNW,301,0.0,4.0,72,0.00,,,0.00,weatherlink.com 1.10,2013-03-30 11:50:00,
2013-03-30 08:05:00,38.4,29.0,30.23,NW,310,2.0,4.0,69,0.00,,,0.00,weatherlink.com 1.10,2013-03-30 12:05:00,
2013-03-30 08:20:00,39.4,29.0,30.24,WNW,293,2.0,4.0,67,0.00,,,0.00,weatherlink.com 1.10,2013-03-30 12:20:00,
2013-03-30 08:35:00,40.3,29.0,30.24,WNW,298,3.0,4.0,64,0.00,,,0.00,weatherlink.com 1.10,2013-03-30 12:35:00,
2013-03-30 08:50:00,41.1,29.0,30.24,NW,309,1.0,3.0,62,0.00,,,0.00,weatherlink.com 1.10,2013-03-30 12:50:00,
2013-03-30 09:05:00,41.7,29.0,30.24,WNW,295,3.0,6.0,61,0.00,,,0.00,weatherlink.com 1.10,2013-03-30 13:05:00,
2013-03-30 09:20:00,42.5,28.0,30.24,WNW,300,2.0,5.0,58,0.00,,,0.00,weatherlink.com 1.10,2013-03-30 13:20:00,
2013-03-30 09:35:00,43.5,28.0,30.24,NW,304,1.0,6.0,54,0.00,,,0.00,weatherlink.com 1.10,2013-03-30 13:35:00,
2013-03-30 09:50:00,44.8,29.0,30.24,NNE,25,3.0,4.0,54,0.00,,,0.00,weatherlink.com 1.10,2013-03-30 13:50:00,
2013-03-30 10:06:00,45.5,30.0,30.24,WNW,285,1.0,4.0,55,0.00,,,0.00,weatherlink.com 1.10,2013-03-30 14:06:00,
2013-03-30 10:21:00,46.3,31.0,30.24,NNW,343,0.0,8.0,55,0.00,,,0.00,weatherlink.com 1.10,2013-03-30 14:21:00,
2013-03-30 10:51:00,48.2,30.0,30.24,West,281,4.0,5.0,49,0.00,,,0.00,weatherlink.com 1.10,2013-03-30 14:51:00,
2013-03-30 11:06:00,48.0,28.0,30.24,NW,306,3.0,5.0,47,0.00,,,0.00,weatherlink.com 1.10,2013-03-30 15:06:00,
2013-03-30 11:36:00,50.2,28.0,30.23,West,276,4.0,9.0,43,0.00,,,0.00,weatherlink.com 1.10,2013-03-30 15:36:00,
2013-03-30 11:51:00,50.3,28.0,30.23,North,355,2.0,6.0,43,0.00,,,0.00,weatherlink.com 1.10,2013-03-30 15:51:00,
2013-03-30 12:21:00,49.1,24.0,30.22,NNW,327,2.0,8.0,37,0.00,,,0.00,weatherlink.com 1.10,2013-03-30 16:21:00,
2013-03-30 12:36:00,51.5,27.0,30.21,NE,35,2.0,10.0,39,0.00,,,0.00,weatherlink.com 1.10,2013-03-30 16:36:00,
2013-03-30 12:51:00,49.9,25.0,30.21,West,279,0.0,6.0,38,0.00,,,0.00,weatherlink.com 1.10,2013-03-30 16:51:00,
2013-03-30 13:06:00,51.3,26.0,30.20,West,262,3.0,11.0,38,0.00,,,0.00,weatherlink.com 1.10,2013-03-30 17:06:00,
2013-03-30 13:21:00,51.7,26.0,30.19,WNW,287,8.0,13.0,37,0.00,,,0.00,weatherlink.com 1.10,2013-03-30 17:21:00,
2013-03-30 13:36:00,51.4,26.0,30.18,West,281,3.0,7.0,37,0.00,,,0.00,weatherlink.com 1.10,2013-03-30 17:36:00,
2013-03-30 13:51:00,53.8,27.0,30.18,West,274,4.0,6.0,35,0.00,,,0.00,weatherlink.com 1.10,2013-03-30 17:51:00,
2013-03-30 14:06:00,53.0,26.0,30.18,North,5,3.0,10.0,35,0.00,,,0.00,weatherlink.com 1.10,2013-03-30 18:06:00,
2013-03-30 14:21:00,55.8,25.0,30.17,East,92,0.0,8.0,30,0.00,,,0.00,weatherlink.com 1.10,2013-03-30 18:21:00,
2013-03-30 14:36:00,55.8,27.0,30.16,West,259,0.0,7.0,33,0.00,,,0.00,weatherlink.com 1.10,2013-03-30 18:36:00,
2013-03-30 14:51:00,53.2,25.0,30.16,West,262,7.0,10.0,34,0.00,,,0.00,weatherlink.com 1.10,2013-03-30 18:51:00,
2013-03-30 15:06:00,53.6,25.0,30.16,NW,323,7.0,9.0,33,0.00,,,0.00,weatherlink.com 1.10,2013-03-30 19:06:00,
2013-03-30 15:21:00,54.6,24.0,30.15,NNE,18,2.0,11.0,31,0.00,,,0.00,weatherlink.com 1.10,2013-03-30 19:21:00,
2013-03-30 15:36:00,54.7,24.0,30.15,NE,49,2.0,8.0,30,0.00,,,0.00,weatherlink.com 1.10,2013-03-30 19:36:00,
2013-03-30 15:51:00,54.9,26.0,30.14,WNW,293,4.0,11.0,33,0.00,,,0.00,weatherlink.com 1.10,2013-03-30 19:51:00,
2013-03-30 16:06:00,54.6,24.0,30.14,WNW,290,4.0,8.0,31,0.00,,,0.00,weatherlink.com 1.10,2013-03-30 20:06:00,
2013-03-30 16:22:00,54.5,23.0,30.14,NW,313,1.0,8.0,30,0.00,,,0.00,weatherlink.com 1.10,2013-03-30 20:22:00,
2013-03-30 16:37:00,57.9,25.0,30.13,SW,215,0.0,9.0,28,0.00,,,0.00,weatherlink.com 1.10,2013-03-30 20:37:00,
2013-03-30 16:52:00,55.4,24.0,30.13,SW,223,5.0,7.0,30,0.00,,,0.00,weatherlink.com 1.10,2013-03-30 20:52:00,
2013-03-30 17:07:00,54.7,23.0,30.13,NW,310,2.0,7.0,29,0.00,,,0.00,weatherlink.com 1.10,2013-03-30 21:07:00,
2013-03-30 17:22:00,55.1,24.0,30.13,WNW,284,2.0,8.0,30,0.00,,,0.00,weatherlink.com 1.10,2013-03-30 21:22:00,
2013-03-30 17:37:00,54.9,25.0,30.13,WNW,303,2.0,5.0,31,0.00,,,0.00,weatherlink.com 1.10,2013-03-30 21:37:00,
2013-03-30 17:52:00,55.2,25.0,30.13,West,277,2.0,7.0,31,0.00,,,0.00,weatherlink.com 1.10,2013-03-30 21:52:00,
2013-03-30 18:07:00,54.3,23.0,30.13,NW,321,1.0,4.0,30,0.00,,,0.00,weatherlink.com 1.10,2013-03-30 22:07:00,
2013-03-30 18:22:00,54.2,23.0,30.13,WNW,297,0.0,3.0,30,0.00,,,0.00,weatherlink.com 1.10,2013-03-30 22:22:00,
2013-03-30 18:37:00,54.1,24.0,30.13,NNW,341,2.0,4.0,31,0.00,,,0.00,weatherlink.com 1.10,2013-03-30 22:37:00,
2013-03-30 18:52:00,53.7,24.0,30.13,WNW,300,1.0,3.0,31,0.00,,,0.00,weatherlink.com 1.10,2013-03-30 22:52:00,
2013-03-30 19:07:00,53.1,24.0,30.13,NW,306,0.0,2.0,32,0.00,,,0.00,weatherlink.com 1.10,2013-03-30 23:07:00,
2013-03-30 19:37:00,48.9,27.0,30.13,NW,306,0.0,0.0,42,0.00,,,0.00,weatherlink.com 1.10,2013-03-30 23:37:00,
2013-03-30 19:52:00,47.6,26.0,30.13,NW,306,0.0,0.0,43,0.00,,,0.00,weatherlink.com 1.10,2013-03-30 23:52:00,
2013-03-30 20:07:00,46.8,26.0,30.13,NW,306,0.0,0.0,44,0.00,,,0.00,weatherlink.com 1.10,2013-03-31 00:07:00,
2013-03-30 20:22:00,46.6,26.0,30.14,NW,306,0.0,0.0,44,0.00,,,0.00,weatherlink.com 1.10,2013-03-31 00:22:00,
2013-03-30 20:37:00,46.6,26.0,30.15,NW,306,0.0,0.0,44,0.00,,,0.00,weatherlink.com 1.10,2013-03-31 00:37:00,
2013-03-30 20:52:00,45.9,25.0,30.15,NW,306,0.0,0.0,45,0.00,,,0.00,weatherlink.com 1.10,2013-03-31 00:52:00,
2013-03-30 21:07:00,45.9,25.0,30.16,NW,306,0.0,0.0,45,0.00,,,0.00,weatherlink.com 1.10,2013-03-31 01:07:00,
2013-03-30 21:22:00,45.2,25.0,30.16,NW,306,0.0,2.0,46,0.00,,,0.00,weatherlink.com 1.10,2013-03-31 01:22:00,
2013-03-30 21:37:00,44.8,25.0,30.16,NW,306,0.0,0.0,47,0.00,,,0.00,weatherlink.com 1.10,2013-03-31 01:37:00,
2013-03-30 21:52:00,44.1,25.0,30.15,NW,306,0.0,0.0,48,0.00,,,0.00,weatherlink.com 1.10,2013-03-31 01:52:00,
2013-03-30 22:22:00,43.4,25.0,30.16,NW,306,0.0,0.0,49,0.00,,,0.00,weatherlink.com 1.10,2013-03-31 02:22:00,
2013-03-30 22:52:00,42.9,25.0,30.15,NW,306,0.0,0.0,49,0.00,,,0.00,weatherlink.com 1.10,2013-03-31 02:52:00,
2013-03-30 23:07:00,42.6,24.0,30.15,NW,306,0.0,0.0,49,0.00,,,0.00,weatherlink.com 1.10,2013-03-31 03:07:00,
2013-03-30 23:22:00,41.8,25.0,30.14,NW,306,0.0,0.0,51,0.00,,,0.00,weatherlink.com 1.10,2013-03-31 03:22:00,
2013-03-30 23:37:00,41.1,24.0,30.14,NW,306,0.0,0.0,51,0.00,,,0.00,weatherlink.com 1.10,2013-03-31 03:37:00,
2013-03-30 23:52:00,40.9,24.0,30.14,NW,306,0.0,0.0,51,0.00,,,0.00,weatherlink.com 1.10,2013-03-31 03:52:00,